Regional Weather Roundup
Issued by NWS

Home | Current Version | Previous Version | Text Only | Print | Product List | Glossary On
Versions: 1 2 3 4 5 6 7 8 9 10 11 12 13 14 15 16 17 18 19 20 21 22 23 24 25 26 27 28 29 30 31 32 33 34 35 36 37 38 39 40 41 42 43 44 45 46 47 48 49 50
000
ASUS46 KLOX 010712
RWRCA

SOUTHERN CALIFORNIA WEATHER ROUNDUP
NATIONAL WEATHER SERVICE OXNARD CALIFORNIA
1200 AM PDT SAT NOV 01 2014

NOTE: "FAIR" INDICATES FEW OR NO CLOUDS BELOW 12,000 FEET WITH NO
SIGNIFICANT WEATHER AND/OR OBSTRUCTIONS TO VISIBILITY.

  -  STATIONS PRECEEDED BY AN ASTERISK (*) ARE NOT NWS OR FAA
     STATIONS AND ARE NOT SUBJECT TO NWS AND FAA QUALITY CONTROL.

CAZ041-042-087-010800-
LA AND ORANGE COUNTY COASTAL AREAS


CITY           SKY/WX    TMP DP  RH WIND       PRES   REMARKS
L.A. DOWNTOWN  CLOUDY    64  56  75 CALM      29.83S
L.A. AIRPORT   DRIZZLE   65  55  70 SW14G23   29.85R
LONG BEACH     CLOUDY    66  56  70 S9        29.84F

CITY           SKY/WX    TMP DP  RH WIND       PRES   REMARKS
AVALON           N/A     64 N/A N/A MISG        N/A
FULLERTON      MOCLDY    66  55  67 SE5       29.83F
*GETTY CENTER    N/A     57  54  88 S15G24      N/A
HAWTHORNE      CLOUDY    67  54  63 S5        29.84S
*LEO CARRILLO    N/A     57  54  90 NW7         N/A
*LOS ALAMITOS  MOCLDY    66  56  70 S7        29.83F
*REDONDO BEACH   N/A     64  57  78 CALM      29.84R
SANTA ANA      CLOUDY    69  54  58 S9        29.85F
STA MONICA APT HVY RAIN  61  56  83 SW12G25   29.85R
*UCLA            N/A     59  55  88 S6        29.82R

$$

CAZ547-548-048-010800-
LA COUNTY VALLEYS AND INLAND EMPIRE


CITY           SKY/WX    TMP DP  RH WIND       PRES   REMARKS
BURBANK        LGT RAIN  61  56  83 SE9       29.83S
VAN NUYS       RAIN      59  55  87 VRB6      29.83S FOG

CITY           SKY/WX    TMP DP  RH WIND       PRES   REMARKS
CORONA AIRPORT CLOUDY    62  57  83 CALM      29.86F
*CHATSWORTH      N/A     59  55  88 E1        29.80S
CHINO          CLOUDY    61  58  90 SW6       29.87F
MARCH AFB      CLOUDY    60  55  83 S6        29.87F
*NORTHRIDGE      N/A     59  54  82 S6G12       N/A
ONTARIO        CLOUDY    60  57  89 SW7       29.86S
*PASADENA        N/A     59  57  94 CALM        N/A
RIVERSIDE      CLOUDY    61  58  90 N3        29.86F
SAN BERNARDINO NOT AVBL
*SAN RAFAEL HI   N/A     56  56 100 S9          N/A
*SAUGUS          N/A     53  53  98 SW14G25     N/A
*WHITEMAN AP   NOT AVBL
*WOODLAND HILL   N/A     57  54  88 SE2         N/A

$$

CAZ054-055-010800-
LA AND SAN BERNARDINO COUNTY MOUNTAINS


CITY           SKY/WX    TMP DP  RH WIND       PRES   REMARKS
*BIG BEAR AIRP MOSUNNY   41  37  87 SW16G29   29.91F WCI  33
MT WILSON NWS    N/A     41 -99   0 MISG        N/A
SANDBERG       HVY RAIN  43  39  86 W12G25    29.86R
*WARM SPRINGS    N/A     46  46 100 SW13G33     N/A

$$

CAZ028-029-059-060-099-010800-
ANTELOPE VALLEY AND SURROUNDING AREAS


CITY           SKY/WX    TMP DP  RH WIND       PRES   REMARKS
LANCASTER      RAIN      54  48  80 SW23G32   29.79S
PALMDALE       PTCLDY    57  46  66 S26       29.77S

CITY           SKY/WX    TMP DP  RH WIND       PRES   REMARKS
29 PALMS       CLEAR     64  44  48 SW23G41   29.82S
BARSTOW/DAGGET CLEAR     65  42  43 SW12G17   29.71F
BISHOP         MOCLDY    55  39  54 S31G47    29.56F
CHINA LAKE     CLOUDY    62  45  53 S12       29.71F
EDWARDS AFB    PTCLDY    57  49  73 W25G35    29.74F
MOJAVE         CLOUDY    54  46  76 SW24G38   29.79R
NEEDLES        CLOUDY    77  50  38 S15       29.69F
VICTORVILLE    PTCLDY    57  48  72 S29       29.78S

$$

CAZ039-040-010800-
VENTURA AND SANTA BARBARA COUNTY COAST


CITY           SKY/WX    TMP DP  RH WIND       PRES   REMARKS
CAMARILLO      LGT RAIN  58  56  93 SW3       29.82F FOG
NWS OXNARD       N/A     58  54  89 CALM      29.82F
OXNARD AIRPORT CLOUDY    58  56  93 CALM      29.82F
*POINT MUGU    LGT RAIN  62  57  83 W5        29.84F
SBA APT/GOLETA PTCLDY    58  52  80 E6        29.79F
*SANTA BARBARA   N/A     57  53  87 CALM      29.86F
*VENTURA         N/A     58  57  95 CALM      29.87S

$$

CAZ044-045-010800-
VENTURA COUNTY VALLEYS


CITY           SKY/WX    TMP DP  RH WIND       PRES   REMARKS
*SIMI VALLEY     N/A     55  53  92 CALM      29.79R
*OJAI            N/A     55  52  91 CALM      29.77S
*FILLMORE        N/A     57  53  88 CALM      29.72F

$$

CAZ053-010800-
VENTURA COUNTY MOUNTAINS


CITY           SKY/WX    TMP DP  RH WIND       PRES   REMARKS
*LOCKWOOD VLY    N/A     36 -99   0 MISG        N/A
*ROSE VALLEY     N/A     45  46 100 MISG        N/A

$$

CAZ034-035-036-010800-
CENTRAL COAST AND SANTA YNEZ VALLEY


CITY           SKY/WX    TMP DP  RH WIND       PRES   REMARKS
SAN LUIS OBISP CLOUDY    56  52  86 VRB3      29.75F
SANTA MARIA    MOCLDY    58  51  78 SE10      29.80F

CITY           SKY/WX    TMP DP  RH WIND       PRES   REMARKS
*CAL POLY SLO    N/A     54  54 100 NE2G10      N/A
*LOMPOC        PTCLDY    55  50  82 SE5       29.83R
*PISMO BEACH     N/A     56  54  95 NE1       29.80F
*SANTA YNEZ    CLOUDY    54  52  94 SE6       29.83F

$$

CAZ037-038-051-010800-
SAN LUIS OBISPO COUNTY INTERIOR AND CUYAMA VALLEY


CITY           SKY/WX    TMP DP  RH WIND       PRES   REMARKS
*CUYAMA          N/A     49  46  92 SE3       29.77F
PASO ROBLES    LGT RAIN  54  50  86 SW5       29.79F

$$

CAZ032-033-061-010800-
SOUTHERN DESERTS


CITY           SKY/WX    TMP DP  RH WIND       PRES   REMARKS
BLYTHE         CLOUDY    73  54  51 S13       29.74F
IMPERIAL       CLOUDY    70  52  52 W9        29.76R
PALM SPRINGS   PTCLDY    67  51  56 NW16      29.77S
THERMAL        CLEAR     72  50  45 NE8       29.72S

$$

ELSEWHERE ACROSS THE WESTERN UNITED STATES AND MEXICO


CITY           SKY/WX    TMP DP  RH WIND       PRES   REMARKS
DENVER, CO     PTCLDY    38  29  70 SW5       30.02F WCI  34
GRAND CANYON,  CLOUDY    56  40  55 S8        30.02F
HONOLULU, HI   PTCLDY    79  70  73 NE15G22   30.06R
KAHULUI, MAUI  PTCLDY    77  68  73 NE14G20   30.07R
LAKE TAHOE, CA LGT RAIN  38  33  82 CALM      29.69F
LAS VEGAS, NV  CLOUDY    72  42  34 S10       29.64F
MAMMOTH LAKES, RAIN      36  36 100 W12G24    29.71R WCI  27
MEXICO CITY, M MOCLDY    54  43  66 N10       30.45S
PHOENIX, AZ    PTCLDY    75  52  44 CALM      29.80S
PORTLAND, OR   CLOUDY    47  47 100 NW5       29.86S
RENO, NV       HVY RAIN  45  39  79 N14       29.68F
SALT LAKE CITY CLOUDY    62  28  27 SE8       29.76F
SAN DIEGO, CA  MOCLDY    68  56  65 S8        29.91F
SAN FRANCISCO, CLOUDY    59  53  80 W5        29.74F
SAN JOSE, CA   CLOUDY    53  53 100 E6        29.75F
SEATTLE, WA    CLOUDY    50  48  93 E5        29.87F
TIJUANA, MEX   MOCLDY    66  54  63 S6        29.94S

$$

STATION/POSITION TIME  TEMP    WIND        PRES    VSBY  WAVE
                       AIR SEA DIR/SP/G                  HT/PER
                 (UTC) (F)     (DEG/KT/KT) (MB)    (MI)  (FT/S)
POINT ARGUELLO B NOT AVBL
WEST SANTA BARBA 0700   60 63   CALM  /  2 1009.7R         4/15
POINT CONCEPTION NOT AVBL
EAST SANTA BARBA 0700   62 67  350/  6/  6 1009.7F
SANTA MONICA BAY 0700   61 68  280/ 17/ 21 1010.5F         4/ 4



USA.gov is the U.S. government's official web portal to all federal, state and local government web resources and services.